Station Historical Data
Daily Summary for October 17, 2017 Units:  English    Metric   Both
« Previous Day
Next Day »
Daily Weekly Monthly Yearly Custom
  High: Low: Average:
Temperature: 66.7 °F 44.5 °F 54.1 °F
Dew Point: 47.7 °F 41.4 °F 44.4 °F
Humidity: 91% 41% 72%
Wind Speed: 14.0mph 1.0mph 4.3mph
Wind Gust: 20.0mph - -
Wind- - East
Pressure: 30.39 in 30.25 in -
Precipitation: 0.00 in    
Historical Graphs
 
 
Tabular Data for October 17, 2017
Time Temperature Dew Point Pressure Wind Wind Speed Wind Gust Humidity Rainfall Rate (Hourly) solar Conditions
00:00 50.0 °F 45.7 °F 30.25 in North 6.0 mph 6.0 mph 85% 0.00 in WeatherDisplay:10.37 W/m2 RA
00:05 50.0 °F 45.7 °F 30.25 in North 6.0 mph 6.0 mph 85% 0.00 in WeatherDisplay:10.37 W/m2 FEW
00:10 50.0 °F 45.7 °F 30.25 in North 6.0 mph 6.0 mph 85% 0.00 in WeatherDisplay:10.37 W/m2 FEW
00:15 49.9 °F 45.9 °F 30.25 in North 5.0 mph 6.0 mph 86% 0.00 in WeatherDisplay:10.37 W/m2 CLR
00:20 49.8 °F 45.8 °F 30.25 in NNE 5.0 mph 5.0 mph 86% 0.00 in WeatherDisplay:10.37 W/m2 CLR
00:25 49.6 °F 45.9 °F 30.25 in NNE 5.0 mph 5.0 mph 87% 0.00 in WeatherDisplay:10.37 W/m2 CLR
00:30 49.5 °F 45.8 °F 30.25 in NNE 5.0 mph 5.0 mph 87% 0.00 in WeatherDisplay:10.37 W/m2 CLR
00:35 49.3 °F 45.6 °F 30.25 in NNE 5.0 mph 5.0 mph 87% 0.00 in WeatherDisplay:10.37 W/m2 CLR
00:40 49.3 °F 45.6 °F 30.25 in NNE 5.0 mph 5.0 mph 87% 0.00 in WeatherDisplay:10.37 W/m2 CLR
00:45 49.2 °F 45.5 °F 30.26 in NNE 5.0 mph 5.0 mph 87% 0.00 in WeatherDisplay:10.37 W/m2 CLR
00:50 49.0 °F 45.3 °F 30.26 in NNE 5.0 mph 5.0 mph 87% 0.00 in WeatherDisplay:10.37 W/m2 CLR
00:55 48.9 °F 45.5 °F 30.26 in NNE 5.0 mph 5.0 mph 88% 0.00 in WeatherDisplay:10.37 W/m2 CLR
01:00 48.8 °F 45.4 °F 30.26 in NNE 5.0 mph 5.0 mph 88% 0.00 in WeatherDisplay:10.37 W/m2 CLR
01:05 48.8 °F 45.4 °F 30.26 in NNE 5.0 mph 5.0 mph 88% 0.00 in WeatherDisplay:10.37 W/m2 CLR
01:10 48.7 °F 45.3 °F 30.26 in NNE 5.0 mph 5.0 mph 88% 0.00 in WeatherDisplay:10.37 W/m2 CLR
01:20 48.6 °F 45.2 °F 30.26 in NNE 3.0 mph 3.0 mph 88% 0.00 in WeatherDisplay:10.37 W/m2 SCT
01:25 48.6 °F 45.2 °F 30.26 in NNE 3.0 mph 3.0 mph 88% 0.00 in WeatherDisplay:10.37 W/m2 SCT
01:30 48.6 °F 45.2 °F 30.26 in NNE 3.0 mph 3.0 mph 88% 0.00 in WeatherDisplay:10.37 W/m2 SCT
01:35 48.5 °F 44.8 °F 30.26 in NNE 3.0 mph 3.0 mph 87% 0.00 in WeatherDisplay:10.37 W/m2 SCT
01:40 48.5 °F 44.8 °F 30.26 in NNE 3.0 mph 3.0 mph 87% 0.00 in WeatherDisplay:10.37 W/m2 SCT
01:45 48.5 °F 44.8 °F 30.26 in NNE 3.0 mph 3.0 mph 87% 0.00 in WeatherDisplay:10.37 W/m2 SCT
01:50 48.5 °F 44.8 °F 30.26 in NNE 3.0 mph 3.0 mph 87% 0.00 in WeatherDisplay:10.37 W/m2 SCT
01:55 48.5 °F 44.8 °F 30.27 in NNE 3.0 mph 3.0 mph 87% 0.00 in WeatherDisplay:10.37 W/m2 SCT
02:00 48.5 °F 44.8 °F 30.27 in NNE 3.0 mph 3.0 mph 87% 0.00 in WeatherDisplay:10.37 W/m2 SCT
02:05 48.4 °F 44.7 °F 30.27 in NNE 3.0 mph 3.0 mph 87% 0.00 in WeatherDisplay:10.37 W/m2 SCT
02:10 48.3 °F 44.9 °F 30.27 in NNE 3.0 mph 3.0 mph 88% 0.00 in WeatherDisplay:10.37 W/m2 SCT
02:15 48.3 °F 44.9 °F 30.26 in NE 1.0 mph 3.0 mph 88% 0.00 in WeatherDisplay:10.37 W/m2 FEW
02:20 48.1 °F 44.7 °F 30.27 in ENE 1.0 mph 1.0 mph 88% 0.00 in WeatherDisplay:10.37 W/m2 FEW
02:25 48.1 °F 45.0 °F 30.27 in ENE 1.0 mph 1.0 mph 89% 0.00 in WeatherDisplay:10.37 W/m2 FEW
02:30 48.0 °F 44.9 °F 30.27 in ENE 1.0 mph 1.0 mph 89% 0.00 in WeatherDisplay:10.37 W/m2 FEW
02:35 48.0 °F 44.9 °F 30.27 in ENE 1.0 mph 1.0 mph 89% 0.00 in WeatherDisplay:10.37 W/m2 FEW
02:40 47.9 °F 44.9 °F 30.27 in ENE 1.0 mph 1.0 mph 89% 0.00 in WeatherDisplay:10.37 W/m2 FEW
02:45 47.9 °F 44.8 °F 30.26 in ENE 1.0 mph 1.0 mph 89% 0.00 in WeatherDisplay:10.37 W/m2 FEW
02:50 47.9 °F 44.8 °F 30.26 in ENE 1.0 mph 1.0 mph 89% 0.00 in WeatherDisplay:10.37 W/m2 FEW
02:55 47.8 °F 44.7 °F 30.26 in ENE 1.0 mph 1.0 mph 89% 0.00 in WeatherDisplay:10.37 W/m2 FEW
03:00 47.8 °F 44.7 °F 30.27 in ENE 1.0 mph 1.0 mph 89% 0.00 in WeatherDisplay:10.37 W/m2 FEW
03:05 47.8 °F 44.5 °F 30.27 in ENE 1.0 mph 1.0 mph 88% 0.00 in WeatherDisplay:10.37 W/m2 FEW
03:10 47.9 °F 44.5 °F 30.27 in ENE 1.0 mph 1.0 mph 88% 0.00 in WeatherDisplay:10.37 W/m2 FEW
03:15 47.9 °F 44.6 °F 30.27 in ENE 1.0 mph 1.0 mph 88% 0.00 in WeatherDisplay:10.37 W/m2 FEW
03:20 47.9 °F 44.5 °F 30.27 in ENE 1.0 mph 1.0 mph 88% 0.00 in WeatherDisplay:10.37 W/m2 FEW
03:25 48.0 °F 44.3 °F 30.27 in ENE 1.0 mph 1.0 mph 87% 0.00 in WeatherDisplay:10.37 W/m2 FEW
03:30 48.0 °F 44.3 °F 30.27 in ENE 1.0 mph 1.0 mph 87% 0.00 in WeatherDisplay:10.37 W/m2 FEW
03:35 48.1 °F 44.1 °F 30.27 in ENE 1.0 mph 1.0 mph 86% 0.00 in WeatherDisplay:10.37 W/m2 FEW
03:40 48.1 °F 44.1 °F 30.27 in ENE 1.0 mph 1.0 mph 86% 0.00 in WeatherDisplay:10.37 W/m2 FEW
03:45 48.1 °F 44.1 °F 30.27 in ENE 1.0 mph 1.0 mph 86% 0.00 in WeatherDisplay:10.37 W/m2 FEW
03:50 48.1 °F 44.1 °F 30.27 in ENE 1.0 mph 1.0 mph 86% 0.00 in WeatherDisplay:10.37 W/m2 FEW
03:55 48.1 °F 44.1 °F 30.27 in ENE 1.0 mph 1.0 mph 86% 0.00 in WeatherDisplay:10.37 W/m2 FEW
04:00 48.0 °F 44.0 °F 30.27 in ENE 1.0 mph 1.0 mph 86% 0.00 in WeatherDisplay:10.37 W/m2 FEW
04:05 47.9 °F 44.2 °F 30.27 in ENE 1.0 mph 1.0 mph 87% 0.00 in WeatherDisplay:10.37 W/m2 FEW
04:10 47.8 °F 43.8 °F 30.27 in ENE 1.0 mph 1.0 mph 86% 0.00 in WeatherDisplay:10.37 W/m2 FEW
04:15 47.7 °F 43.7 °F 30.28 in North 2.0 mph 2.0 mph 86% 0.00 in WeatherDisplay:10.37 W/m2 FEW
04:20 47.7 °F 44.0 °F 30.28 in North 2.0 mph 2.0 mph 87% 0.00 in WeatherDisplay:10.37 W/m2 FEW
04:25 47.6 °F 44.0 °F 30.27 in North 2.0 mph 2.0 mph 87% 0.00 in WeatherDisplay:10.37 W/m2 FEW
04:30 47.5 °F 43.8 °F 30.28 in North 2.0 mph 2.0 mph 87% 0.00 in WeatherDisplay:10.37 W/m2 FEW
04:35 47.4 °F 43.7 °F 30.28 in North 2.0 mph 2.0 mph 87% 0.00 in WeatherDisplay:10.37 W/m2 FEW
04:40 47.2 °F 43.5 °F 30.28 in North 2.0 mph 2.0 mph 87% 0.00 in WeatherDisplay:10.37 W/m2 FEW
04:45 47.2 °F 43.2 °F 30.28 in North 2.0 mph 2.0 mph 86% 0.00 in WeatherDisplay:10.37 W/m2 FEW
04:50 47.3 °F 43.3 °F 30.28 in North 2.0 mph 2.0 mph 86% 0.00 in WeatherDisplay:10.37 W/m2 FEW
04:55 47.2 °F 43.2 °F 30.28 in North 2.0 mph 2.0 mph 86% 0.00 in WeatherDisplay:10.37 W/m2 FEW
05:00 47.2 °F 42.9 °F 30.28 in North 2.0 mph 2.0 mph 85% 0.00 in WeatherDisplay:10.37 W/m2 FEW
05:05 47.1 °F 43.1 °F 30.28 in North 2.0 mph 2.0 mph 86% 0.00 in WeatherDisplay:10.37 W/m2 FEW
05:10 47.1 °F 43.1 °F 30.29 in North 2.0 mph 2.0 mph 86% 0.00 in WeatherDisplay:10.37 W/m2 FEW
05:15 47.0 °F 43.0 °F 30.29 in NNE 2.0 mph 2.0 mph 86% 0.00 in WeatherDisplay:10.37 W/m2 FEW
05:20 47.0 °F 43.3 °F 30.29 in NE 2.0 mph 2.0 mph 87% 0.00 in WeatherDisplay:10.37 W/m2 FEW
05:25 46.8 °F 43.1 °F 30.29 in NE 2.0 mph 2.0 mph 87% 0.00 in WeatherDisplay:10.37 W/m2 FEW
05:30 46.7 °F 43.0 °F 30.29 in NE 2.0 mph 2.0 mph 87% 0.00 in WeatherDisplay:10.37 W/m2 FEW
05:35 46.5 °F 42.8 °F 30.30 in NE 2.0 mph 2.0 mph 87% 0.00 in WeatherDisplay:10.37 W/m2 FEW
05:40 46.3 °F 42.9 °F 30.30 in NE 2.0 mph 2.0 mph 88% 0.00 in WeatherDisplay:10.37 W/m2 FEW
05:45 46.1 °F 42.7 °F 30.30 in NE 2.0 mph 2.0 mph 88% 0.00 in WeatherDisplay:10.37 W/m2 FEW
05:50 46.0 °F 42.6 °F 30.30 in NE 2.0 mph 2.0 mph 88% 0.00 in WeatherDisplay:10.37 W/m2 FEW
05:55 45.6 °F 42.6 °F 30.30 in NE 2.0 mph 2.0 mph 89% 0.00 in WeatherDisplay:10.37 W/m2 FEW
06:00 45.5 °F 42.4 °F 30.30 in NE 2.0 mph 2.0 mph 89% 0.00 in WeatherDisplay:10.37 W/m2 FEW
06:05 45.3 °F 42.2 °F 30.30 in NE 2.0 mph 2.0 mph 89% 0.00 in WeatherDisplay:10.37 W/m2 FEW
06:10 45.2 °F 42.4 °F 30.30 in NE 2.0 mph 2.0 mph 90% 0.00 in WeatherDisplay:10.37 W/m2 FEW
06:15 45.1 °F 42.3 °F 30.30 in NE 3.0 mph 3.0 mph 90% 0.00 in WeatherDisplay:10.37 W/m2 FEW
06:20 44.9 °F 42.1 °F 30.31 in NE 3.0 mph 3.0 mph 90% 0.00 in WeatherDisplay:10.37 W/m2 FEW
06:25 44.8 °F 42.0 °F 30.31 in NE 3.0 mph 3.0 mph 90% 0.00 in WeatherDisplay:10.37 W/m2 FEW
06:30 44.7 °F 41.9 °F 30.31 in NE 3.0 mph 3.0 mph 90% 0.00 in WeatherDisplay:10.37 W/m2 FEW
06:35 44.6 °F 41.8 °F 30.31 in NE 3.0 mph 3.0 mph 90% 0.00 in WeatherDisplay:10.37 W/m2 FEW
06:40 44.5 °F 41.7 °F 30.31 in NE 3.0 mph 3.0 mph 90% 0.00 in WeatherDisplay:10.37 W/m2 FEW
06:45 44.5 °F 42.0 °F 30.31 in NE 3.0 mph 3.0 mph 91% 0.00 in WeatherDisplay:10.37 W/m2 FEW
06:50 44.5 °F 42.0 °F 30.31 in NE 3.0 mph 3.0 mph 91% 0.00 in WeatherDisplay:10.37 W/m2 FEW
06:55 44.5 °F 42.0 °F 30.32 in NE 3.0 mph 3.0 mph 91% 0.00 in WeatherDisplay:10.37 W/m2 FEW
07:00 44.6 °F 42.1 °F 30.32 in NE 3.0 mph 3.0 mph 91% 0.00 in WeatherDisplay:10.37 W/m2 FEW
07:05 44.7 °F 41.9 °F 30.32 in NE 3.0 mph 3.0 mph 90% 0.00 in WeatherDisplay:10.37 W/m2 FEW
07:10 44.7 °F 41.9 °F 30.33 in NE 3.0 mph 3.0 mph 90% 0.00 in WeatherDisplay:10.37 W/m2 FEW
07:15 44.8 °F 42.0 °F 30.33 in NE 3.0 mph 3.0 mph 90% 0.00 in WeatherDisplay:10.37 W/m2 FEW
07:20 44.8 °F 42.0 °F 30.33 in NE 3.0 mph 3.0 mph 90% 0.00 in WeatherDisplay:10.37 W/m2 FEW
07:25 44.8 °F 42.0 °F 30.33 in NE 3.0 mph 3.0 mph 90% 0.00 in WeatherDisplay:10.37 W/m2 FEW
07:30 44.8 °F 42.0 °F 30.34 in NE 3.0 mph 3.0 mph 90% 0.00 in WeatherDisplay:10.37 W/m2 FEW
07:35 44.9 °F 42.1 °F 30.34 in NE 3.0 mph 3.0 mph 90% 0.00 in WeatherDisplay:10.37 W/m2 FEW
07:40 44.9 °F 41.9 °F 30.34 in NE 3.0 mph 3.0 mph 89% 0.00 in WeatherDisplay:10.37 W/m2 FEW
07:45 45.0 °F 41.9 °F 30.34 in NE 3.0 mph 3.0 mph 89% 0.00 in WeatherDisplay:10.37 W/m2 FEW
07:50 45.0 °F 41.9 °F 30.34 in NE 3.0 mph 3.0 mph 89% 0.00 in WeatherDisplay:10.37 W/m2 FEW
07:55 45.0 °F 42.0 °F 30.34 in NE 3.0 mph 3.0 mph 89% 0.00 in WeatherDisplay:10.37 W/m2 FEW
08:00 45.1 °F 42.0 °F 30.34 in NE 3.0 mph 3.0 mph 89% 0.00 in WeatherDisplay:10.37 W/m2 FEW
08:05 45.2 °F 41.9 °F 30.35 in NE 3.0 mph 3.0 mph 88% 0.00 in WeatherDisplay:10.37 W/m2 FEW
08:10 45.3 °F 41.7 °F 30.35 in NE 3.0 mph 3.0 mph 87% 0.00 in WeatherDisplay:10.37 W/m2 FEW
08:15 45.6 °F 42.0 °F 30.35 in NE 5.0 mph 5.0 mph 87% 0.00 in WeatherDisplay:10.37 W/m2 FEW
08:20 45.8 °F 42.4 °F 30.35 in NE 5.0 mph 5.0 mph 88% 0.00 in WeatherDisplay:10.37 W/m2 FEW
08:25 46.0 °F 42.6 °F 30.35 in NE 5.0 mph 5.0 mph 88% 0.00 in WeatherDisplay:10.37 W/m2 FEW
08:30 46.3 °F 42.9 °F 30.36 in NE 5.0 mph 5.0 mph 88% 0.00 in WeatherDisplay:10.37 W/m2 FEW
08:35 46.5 °F 43.2 °F 30.36 in NE 5.0 mph 5.0 mph 88% 0.00 in WeatherDisplay:10.37 W/m2 FEW
08:40 46.8 °F 43.1 °F 30.36 in NE 5.0 mph 5.0 mph 87% 0.00 in WeatherDisplay:10.37 W/m2 FEW
08:45 47.1 °F 43.1 °F 30.36 in NE 5.0 mph 5.0 mph 86% 0.00 in WeatherDisplay:10.37 W/m2 FEW
08:50 47.4 °F 42.8 °F 30.36 in NE 5.0 mph 5.0 mph 84% 0.00 in WeatherDisplay:10.37 W/m2 FEW
08:55 47.9 °F 43.3 °F 30.37 in NE 5.0 mph 5.0 mph 84% 0.00 in WeatherDisplay:10.37 W/m2 FEW
09:00 48.3 °F 43.4 °F 30.37 in NE 5.0 mph 5.0 mph 83% 0.00 in WeatherDisplay:10.37 W/m2 FEW
09:05 48.7 °F 43.8 °F 30.37 in NE 5.0 mph 5.0 mph 83% 0.00 in WeatherDisplay:10.37 W/m2 FEW
09:10 49.3 °F 43.4 °F 30.37 in NE 5.0 mph 5.0 mph 80% 0.00 in WeatherDisplay:10.37 W/m2 FEW
09:15 50.0 °F 43.0 °F 30.37 in NE 5.0 mph 5.0 mph 77% 0.00 in WeatherDisplay:10.37 W/m2 FEW
09:20 50.6 °F 43.3 °F 30.37 in ENE 5.0 mph 5.0 mph 76% 0.00 in WeatherDisplay:10.37 W/m2 FEW
09:30 51.6 °F 43.2 °F 30.37 in ENE 5.0 mph 5.0 mph 73% 0.00 in WeatherDisplay:10.37 W/m2 FEW
09:40 52.6 °F 43.4 °F 30.37 in ENE 5.0 mph 5.0 mph 71% 0.00 in WeatherDisplay:10.37 W/m2 FEW
09:45 53.0 °F 43.5 °F 30.37 in ENE 5.0 mph 5.0 mph 70% 0.00 in WeatherDisplay:10.37 W/m2 FEW
09:50 53.5 °F 43.2 °F 30.37 in ENE 5.0 mph 5.0 mph 68% 0.00 in WeatherDisplay:10.37 W/m2 FEW
09:55 54.0 °F 42.9 °F 30.37 in ENE 5.0 mph 5.0 mph 66% 0.00 in WeatherDisplay:10.37 W/m2 FEW
10:00 54.3 °F 42.4 °F 30.37 in ENE 5.0 mph 5.0 mph 64% 0.00 in WeatherDisplay:10.37 W/m2 FEW
10:05 54.8 °F 43.2 °F 30.37 in ENE 5.0 mph 5.0 mph 65% 0.00 in WeatherDisplay:10.37 W/m2 FEW
10:10 55.3 °F 42.9 °F 30.37 in ENE 5.0 mph 5.0 mph 63% 0.00 in WeatherDisplay:10.37 W/m2 FEW
10:15 55.6 °F 42.7 °F 30.37 in ENE 8.0 mph 8.0 mph 62% 0.00 in WeatherDisplay:10.37 W/m2 FEW
10:20 55.9 °F 42.6 °F 30.38 in East 8.0 mph 8.0 mph 61% 0.00 in WeatherDisplay:10.37 W/m2 FEW
10:25 56.0 °F 42.7 °F 30.38 in East 8.0 mph 8.0 mph 61% 0.00 in WeatherDisplay:10.37 W/m2 FEW
10:30 56.4 °F 43.1 °F 30.38 in East 8.0 mph 8.0 mph 61% 0.00 in WeatherDisplay:10.37 W/m2 FEW
10:40 57.0 °F 41.4 °F 30.38 in East 8.0 mph 8.0 mph 56% 0.00 in WeatherDisplay:10.37 W/m2 FEW
10:45 57.2 °F 42.1 °F 30.38 in East 8.0 mph 8.0 mph 57% 0.00 in WeatherDisplay:10.37 W/m2 FEW
10:50 57.6 °F 41.6 °F 30.38 in East 8.0 mph 8.0 mph 55% 0.00 in WeatherDisplay:10.37 W/m2 FEW
10:55 58.3 °F 43.2 °F 30.38 in East 8.0 mph 8.0 mph 57% 0.00 in WeatherDisplay:10.37 W/m2 FEW
11:00 59.0 °F 43.3 °F 30.38 in East 8.0 mph 8.0 mph 56% 0.00 in WeatherDisplay:10.37 W/m2 FEW
11:05 59.6 °F 43.4 °F 30.38 in East 8.0 mph 8.0 mph 55% 0.00 in WeatherDisplay:10.37 W/m2 FEW
11:10 59.9 °F 42.2 °F 30.38 in East 8.0 mph 8.0 mph 52% 0.00 in WeatherDisplay:10.37 W/m2 FEW
11:15 60.1 °F 43.4 °F 30.38 in ENE 12.0 mph 20.0 mph 54% 0.00 in WeatherDisplay:10.37 W/m2 CLR
11:20 60.7 °F 43.9 °F 30.38 in ENE 12.0 mph 20.0 mph 54% 0.00 in WeatherDisplay:10.37 W/m2 CLR
11:25 61.2 °F 43.4 °F 30.38 in ENE 12.0 mph 20.0 mph 52% 0.00 in WeatherDisplay:10.37 W/m2 CLR
11:30 61.6 °F 44.3 °F 30.39 in ENE 12.0 mph 20.0 mph 53% 0.00 in WeatherDisplay:10.37 W/m2 CLR
11:35 61.8 °F 42.4 °F 30.39 in ENE 12.0 mph 20.0 mph 49% 0.00 in WeatherDisplay:10.37 W/m2 CLR
11:40 62.0 °F 43.6 °F 30.39 in ENE 12.0 mph 20.0 mph 51% 0.00 in WeatherDisplay:10.37 W/m2 CLR
11:45 62.2 °F 42.3 °F 30.38 in ENE 12.0 mph 20.0 mph 48% 0.00 in WeatherDisplay:10.37 W/m2 CLR
11:50 62.6 °F 43.7 °F 30.38 in ENE 12.0 mph 20.0 mph 50% 0.00 in WeatherDisplay:10.37 W/m2 CLR
11:55 63.1 °F 42.5 °F 30.38 in ENE 12.0 mph 20.0 mph 47% 0.00 in WeatherDisplay:10.37 W/m2 CLR
12:00 62.8 °F 41.7 °F 30.38 in ENE 12.0 mph 20.0 mph 46% 0.00 in WeatherDisplay:10.37 W/m2 CLR
12:05 62.6 °F 43.2 °F 30.38 in ENE 12.0 mph 20.0 mph 49% 0.00 in WeatherDisplay:10.37 W/m2 CLR
12:10 62.3 °F 42.4 °F 30.38 in ENE 12.0 mph 20.0 mph 48% 0.00 in WeatherDisplay:10.37 W/m2 CLR
12:15 61.9 °F 41.4 °F 30.38 in East 14.0 mph 20.0 mph 47% 0.00 in WeatherDisplay:10.37 W/m2 CLR
12:20 61.8 °F 42.4 °F 30.37 in East 14.0 mph 14.0 mph 49% 0.00 in WeatherDisplay:10.37 W/m2 CLR
12:25 61.7 °F 42.9 °F 30.37 in East 14.0 mph 14.0 mph 50% 0.00 in WeatherDisplay:10.37 W/m2 CLR
12:30 62.0 °F 43.1 °F 30.37 in East 14.0 mph 14.0 mph 50% 0.00 in WeatherDisplay:10.37 W/m2 CLR
12:35 62.1 °F 43.2 °F 30.37 in East 14.0 mph 14.0 mph 50% 0.00 in WeatherDisplay:10.37 W/m2 CLR
12:40 62.1 °F 43.2 °F 30.37 in East 14.0 mph 14.0 mph 50% 0.00 in WeatherDisplay:10.37 W/m2 CLR
12:45 61.9 °F 43.0 °F 30.37 in East 14.0 mph 14.0 mph 50% 0.00 in WeatherDisplay:10.37 W/m2 CLR
12:55 62.1 °F 43.7 °F 30.36 in East 14.0 mph 14.0 mph 51% 0.00 in WeatherDisplay:10.37 W/m2 CLR
13:00 62.3 °F 42.9 °F 30.36 in East 14.0 mph 14.0 mph 49% 0.00 in WeatherDisplay:10.37 W/m2 CLR
13:05 62.3 °F 43.4 °F 30.36 in East 14.0 mph 14.0 mph 50% 0.00 in WeatherDisplay:10.37 W/m2 CLR
13:10 62.5 °F 43.1 °F 30.36 in East 14.0 mph 14.0 mph 49% 0.00 in WeatherDisplay:10.37 W/m2 CLR
13:15 62.8 °F 43.9 °F 30.35 in East 9.0 mph 14.0 mph 50% 0.00 in WeatherDisplay:10.37 W/m2 CLR
13:20 63.0 °F 43.5 °F 30.35 in East 9.0 mph 9.0 mph 49% 0.00 in WeatherDisplay:10.37 W/m2 CLR
13:25 63.1 °F 43.1 °F 30.35 in East 9.0 mph 9.0 mph 48% 0.00 in WeatherDisplay:10.37 W/m2 CLR
13:30 63.2 °F 42.6 °F 30.35 in East 9.0 mph 9.0 mph 47% 0.00 in WeatherDisplay:10.37 W/m2 CLR
13:40 63.7 °F 43.1 °F 30.34 in East 9.0 mph 9.0 mph 47% 0.00 in WeatherDisplay:10.37 W/m2 CLR
13:45 64.1 °F 44.5 °F 30.34 in East 9.0 mph 9.0 mph 49% 0.00 in WeatherDisplay:10.37 W/m2 CLR
13:50 64.1 °F 42.9 °F 30.34 in East 9.0 mph 9.0 mph 46% 0.00 in WeatherDisplay:10.37 W/m2 CLR
13:55 64.7 °F 44.0 °F 30.34 in East 9.0 mph 9.0 mph 47% 0.00 in WeatherDisplay:10.37 W/m2 CLR
14:00 65.2 °F 43.9 °F 30.33 in East 9.0 mph 9.0 mph 46% 0.00 in WeatherDisplay:10.37 W/m2 CLR
14:10 65.6 °F 43.7 °F 30.33 in East 9.0 mph 9.0 mph 45% 0.00 in WeatherDisplay:10.37 W/m2 CLR
14:15 66.0 °F 44.6 °F 30.32 in East 6.0 mph 9.0 mph 46% 0.00 in WeatherDisplay:10.37 W/m2 CLR
14:20 66.3 °F 43.7 °F 30.32 in East 6.0 mph 6.0 mph 44% 0.00 in WeatherDisplay:10.37 W/m2 CLR
14:25 66.4 °F 43.8 °F 30.32 in East 6.0 mph 6.0 mph 44% 0.00 in WeatherDisplay:10.37 W/m2 CLR
14:30 66.6 °F 45.7 °F 30.31 in East 6.0 mph 6.0 mph 47% 0.00 in WeatherDisplay:10.37 W/m2 CLR
14:35 66.7 °F 44.7 °F 30.31 in East 6.0 mph 6.0 mph 45% 0.00 in WeatherDisplay:10.37 W/m2 CLR
14:40 66.2 °F 42.4 °F 30.31 in East 6.0 mph 6.0 mph 42% 0.00 in WeatherDisplay:10.37 W/m2 CLR
14:45 65.6 °F 44.3 °F 30.31 in East 6.0 mph 6.0 mph 46% 0.00 in WeatherDisplay:10.37 W/m2 CLR
14:50 65.8 °F 43.9 °F 30.30 in East 6.0 mph 6.0 mph 45% 0.00 in WeatherDisplay:10.37 W/m2 CLR
14:55 66.0 °F 44.6 °F 30.30 in East 6.0 mph 6.0 mph 46% 0.00 in WeatherDisplay:10.37 W/m2 CLR
15:00 66.2 °F 44.2 °F 30.30 in East 6.0 mph 6.0 mph 45% 0.00 in WeatherDisplay:10.37 W/m2 CLR
15:05 66.1 °F 41.7 °F 30.30 in East 6.0 mph 6.0 mph 41% 0.00 in WeatherDisplay:10.37 W/m2 CLR
15:10 65.6 °F 42.5 °F 30.30 in East 6.0 mph 6.0 mph 43% 0.00 in WeatherDisplay:10.37 W/m2 CLR
15:15 65.4 °F 42.3 °F 30.30 in NE 3.0 mph 6.0 mph 43% 0.00 in WeatherDisplay:10.37 W/m2 CLR
15:20 65.3 °F 43.4 °F 30.30 in NNE 3.0 mph 3.0 mph 45% 0.00 in WeatherDisplay:10.37 W/m2 CLR
15:25 65.3 °F 42.2 °F 30.30 in NNE 3.0 mph 3.0 mph 43% 0.00 in WeatherDisplay:10.37 W/m2 CLR
15:30 65.2 °F 43.3 °F 30.29 in NNE 3.0 mph 3.0 mph 45% 0.00 in WeatherDisplay:10.37 W/m2 CLR
15:40 65.3 °F 42.8 °F 30.29 in NNE 3.0 mph 3.0 mph 44% 0.00 in WeatherDisplay:10.37 W/m2 CLR
15:45 65.2 °F 42.1 °F 30.29 in NNE 3.0 mph 3.0 mph 43% 0.00 in WeatherDisplay:10.37 W/m2 CLR
15:50 65.1 °F 42.6 °F 30.29 in NNE 3.0 mph 3.0 mph 44% 0.00 in WeatherDisplay:10.37 W/m2 CLR
15:55 65.0 °F 43.1 °F 30.29 in NNE 3.0 mph 3.0 mph 45% 0.00 in WeatherDisplay:10.37 W/m2 CLR
16:00 65.1 °F 44.4 °F 30.29 in NNE 3.0 mph 3.0 mph 47% 0.00 in WeatherDisplay:10.37 W/m2 CLR
16:05 65.1 °F 43.8 °F 30.29 in NNE 3.0 mph 3.0 mph 46% 0.00 in WeatherDisplay:10.37 W/m2 CLR
16:10 65.2 °F 44.5 °F 30.29 in NNE 3.0 mph 3.0 mph 47% 0.00 in WeatherDisplay:10.37 W/m2 CLR
16:15 65.2 °F 43.9 °F 30.29 in ENE 5.0 mph 5.0 mph 46% 0.00 in WeatherDisplay:10.37 W/m2 CLR
16:20 65.2 °F 43.3 °F 30.29 in East 5.0 mph 5.0 mph 45% 0.00 in WeatherDisplay:10.37 W/m2 CLR
16:25 65.2 °F 43.3 °F 30.29 in East 5.0 mph 5.0 mph 45% 0.00 in WeatherDisplay:10.37 W/m2 CLR
16:30 65.1 °F 43.2 °F 30.28 in East 4.6 mph 4.6 mph 45% 0.00 in WeatherDisplay:10.37 W/m2 CLR
16:35 65.0 °F 43.1 °F 30.29 in East 5.0 mph 5.0 mph 45% 0.00 in WeatherDisplay:10.37 W/m2 CLR
16:40 65.1 °F 44.9 °F 30.29 in East 5.0 mph 5.0 mph 48% 0.00 in WeatherDisplay:10.37 W/m2 CLR
16:45 65.1 °F 44.9 °F 30.29 in East 5.0 mph 5.0 mph 48% 0.00 in WeatherDisplay:10.37 W/m2 CLR
16:50 65.0 °F 46.4 °F 30.28 in East 5.0 mph 5.0 mph 51% 0.00 in WeatherDisplay:10.37 W/m2 CLR
16:55 64.9 °F 44.7 °F 30.28 in East 4.6 mph 4.6 mph 48% 0.00 in WeatherDisplay:10.37 W/m2 CLR
17:00 64.8 °F 44.1 °F 30.28 in East 5.0 mph 5.0 mph 47% 0.00 in WeatherDisplay:10.37 W/m2 CLR
17:05 64.7 °F 46.2 °F 30.28 in East 5.0 mph 5.0 mph 51% 0.00 in WeatherDisplay:10.37 W/m2 CLR
17:10 64.6 °F 45.0 °F 30.28 in East 5.0 mph 5.0 mph 49% 0.00 in WeatherDisplay:10.37 W/m2 CLR
17:15 64.2 °F 45.2 °F 30.28 in East 5.0 mph 5.0 mph 50% 0.00 in WeatherDisplay:10.37 W/m2 CLR
17:20 64.1 °F 46.1 °F 30.28 in East 5.0 mph 5.0 mph 52% 0.00 in WeatherDisplay:10.37 W/m2 CLR
17:25 63.8 °F 46.8 °F 30.28 in East 5.0 mph 5.0 mph 54% 0.00 in WeatherDisplay:10.37 W/m2 CLR
17:30 63.4 °F 46.9 °F 30.28 in East 4.6 mph 4.6 mph 55% 0.00 in WeatherDisplay:10.37 W/m2 CLR
17:35 63.0 °F 47.5 °F 30.27 in East 5.0 mph 5.0 mph 57% 0.00 in WeatherDisplay:10.37 W/m2 CLR
17:40 62.8 °F 47.3 °F 30.27 in East 5.0 mph 5.0 mph 57% 0.00 in WeatherDisplay:10.37 W/m2 CLR
17:45 62.5 °F 47.1 °F 30.28 in East 4.6 mph 4.6 mph 57% 0.00 in WeatherDisplay:10.37 W/m2 CLR
17:50 62.3 °F 46.9 °F 30.27 in East 5.0 mph 5.0 mph 57% 0.00 in WeatherDisplay:10.37 W/m2 CLR
17:55 62.2 °F 46.3 °F 30.27 in East 5.0 mph 5.0 mph 56% 0.00 in WeatherDisplay:10.37 W/m2 CLR
18:00 62.1 °F 47.1 °F 30.28 in East 5.0 mph 5.0 mph 58% 0.00 in WeatherDisplay:10.37 W/m2 CLR
18:05 61.8 °F 47.3 °F 30.28 in East 3.5 mph 3.5 mph 59% 0.00 in WeatherDisplay:10.37 W/m2 CLR
18:10 61.6 °F 47.1 °F 30.28 in East 3.5 mph 3.5 mph 59% 0.00 in WeatherDisplay:10.37 W/m2 CLR
18:15 61.3 °F 46.8 °F 30.28 in East 3.5 mph 3.5 mph 59% 0.00 in WeatherDisplay:10.37 W/m2 CLR
18:20 61.0 °F 47.4 °F 30.28 in East 3.5 mph 3.5 mph 61% 0.00 in WeatherDisplay:10.37 W/m2 CLR
18:30 60.5 °F 46.5 °F 30.28 in East 3.5 mph 3.5 mph 60% 0.00 in WeatherDisplay:10.37 W/m2 CLR
18:35 60.2 °F 46.7 °F 30.28 in East 3.5 mph 3.5 mph 61% 0.00 in WeatherDisplay:10.37 W/m2 CLR
18:40 59.9 °F 46.8 °F 30.28 in East 3.5 mph 3.5 mph 62% 0.00 in WeatherDisplay:10.37 W/m2 CLR
18:45 59.7 °F 46.7 °F 30.28 in East 3.5 mph 3.5 mph 62% 0.00 in WeatherDisplay:10.37 W/m2 CLR
18:51 59.4 °F 45.9 °F 30.27 in East 3.5 mph 3.5 mph 61% 0.00 in WeatherDisplay:10.37 W/m2 CLR
18:56 59.1 °F 45.7 °F 30.27 in East 3.5 mph 3.5 mph 61% 0.00 in WeatherDisplay:10.37 W/m2 CLR
19:01 58.7 °F 45.7 °F 30.27 in East 3.5 mph 3.5 mph 62% 0.00 in WeatherDisplay:10.37 W/m2 CLR
19:06 58.3 °F 46.6 °F 30.27 in NE 3.5 mph 3.5 mph 65% 0.00 in WeatherDisplay:10.37 W/m2 CLR
19:11 58.0 °F 47.1 °F 30.28 in NE 3.5 mph 3.5 mph 67% 0.00 in WeatherDisplay:10.37 W/m2 CLR
19:16 57.8 °F 47.3 °F 30.28 in NE 3.5 mph 3.5 mph 68% 0.00 in WeatherDisplay:10.37 W/m2 CLR
19:21 57.4 °F 47.3 °F 30.28 in NE 3.5 mph 3.5 mph 69% 0.00 in WeatherDisplay:10.37 W/m2 CLR
19:26 57.1 °F 46.2 °F 30.28 in NE 3.5 mph 3.5 mph 67% 0.00 in WeatherDisplay:10.37 W/m2 CLR
19:31 56.7 °F 47.0 °F 30.28 in NE 3.5 mph 3.5 mph 70% 0.00 in WeatherDisplay:10.37 W/m2 CLR
19:36 56.3 °F 47.0 °F 30.28 in NE 3.5 mph 3.5 mph 71% 0.00 in WeatherDisplay:10.37 W/m2 CLR
19:41 55.9 °F 47.4 °F 30.28 in NE 3.5 mph 3.5 mph 73% 0.00 in WeatherDisplay:10.37 W/m2 CLR
19:46 55.5 °F 46.6 °F 30.28 in NE 3.5 mph 3.5 mph 72% 0.00 in WeatherDisplay:10.37 W/m2 CLR
19:51 55.3 °F 47.2 °F 30.28 in NE 3.5 mph 3.5 mph 74% 0.00 in WeatherDisplay:10.37 W/m2 CLR
19:56 55.0 °F 47.2 °F 30.28 in NE 3.5 mph 3.5 mph 75% 0.00 in WeatherDisplay:10.37 W/m2 CLR
20:01 54.8 °F 47.0 °F 30.28 in NE 3.5 mph 3.5 mph 75% 0.00 in WeatherDisplay:10.37 W/m2 CLR
20:06 54.5 °F 47.1 °F 30.28 in NE 3.5 mph 3.5 mph 76% 0.00 in WeatherDisplay:10.37 W/m2 CLR
20:11 54.3 °F 46.9 °F 30.28 in NE 3.5 mph 3.5 mph 76% 0.00 in WeatherDisplay:10.37 W/m2 CLR
20:16 54.0 °F 47.3 °F 30.29 in NE 3.5 mph 3.5 mph 78% 0.00 in WeatherDisplay:10.37 W/m2 CLR
20:21 53.8 °F 47.4 °F 30.29 in NE 3.5 mph 3.5 mph 79% 0.00 in WeatherDisplay:10.37 W/m2 CLR
20:26 53.7 °F 47.7 °F 30.29 in NE 3.5 mph 3.5 mph 80% 0.00 in WeatherDisplay:10.37 W/m2 CLR
20:31 53.5 °F 47.5 °F 30.29 in NE 3.5 mph 3.5 mph 80% 0.00 in WeatherDisplay:10.37 W/m2 CLR
20:36 53.3 °F 47.6 °F 30.29 in NE 3.5 mph 3.5 mph 81% 0.00 in WeatherDisplay:10.37 W/m2 CLR
20:42 53.1 °F 47.4 °F 30.29 in NE 3.5 mph 3.5 mph 81% 0.00 in WeatherDisplay:10.37 W/m2 CLR
20:47 52.9 °F 47.2 °F 30.29 in NE 3.5 mph 3.5 mph 81% 0.00 in WeatherDisplay:10.37 W/m2 CLR
20:52 52.7 °F 47.4 °F 30.29 in NE 3.5 mph 3.5 mph 82% 0.00 in WeatherDisplay:10.37 W/m2 CLR
20:57 52.6 °F 47.3 °F 30.29 in NE 3.5 mph 3.5 mph 82% 0.00 in WeatherDisplay:10.37 W/m2 CLR
21:02 52.4 °F 47.1 °F 30.29 in ESE 3.5 mph 3.5 mph 82% 0.00 in WeatherDisplay:10.37 W/m2 CLR
21:07 52.3 °F 47.0 °F 30.30 in ESE 1.2 mph 1.2 mph 82% 0.00 in WeatherDisplay:10.37 W/m2 CLR
21:12 52.2 °F 47.2 °F 30.29 in ESE 1.2 mph 1.2 mph 83% 0.00 in WeatherDisplay:10.37 W/m2 CLR
21:17 52.1 °F 46.8 °F 30.30 in ESE 1.2 mph 1.2 mph 82% 0.00 in WeatherDisplay:10.37 W/m2 CLR
21:22 52.0 °F 47.0 °F 30.30 in ESE 1.2 mph 1.2 mph 83% 0.00 in WeatherDisplay:10.37 W/m2 CLR
21:27 51.9 °F 46.9 °F 30.30 in ESE 1.2 mph 1.2 mph 83% 0.00 in WeatherDisplay:10.37 W/m2 CLR
21:32 51.7 °F 46.1 °F 30.30 in ESE 1.2 mph 1.2 mph 81% 0.00 in WeatherDisplay:10.37 W/m2 CLR
21:37 51.8 °F 46.8 °F 30.30 in ESE 1.2 mph 1.2 mph 83% 0.00 in WeatherDisplay:10.37 W/m2 CLR
21:42 51.6 °F 46.6 °F 30.30 in ESE 1.2 mph 1.2 mph 83% 0.00 in WeatherDisplay:10.37 W/m2 CLR
21:47 51.4 °F 46.4 °F 30.30 in ESE 1.2 mph 1.2 mph 83% 0.00 in WeatherDisplay:10.37 W/m2 CLR
21:52 51.3 °F 46.3 °F 30.31 in ESE 1.2 mph 1.2 mph 83% 0.00 in WeatherDisplay:10.37 W/m2 CLR
21:57 51.4 °F 46.7 °F 30.31 in ESE 1.2 mph 1.2 mph 84% 0.00 in WeatherDisplay:10.37 W/m2 CLR
22:02 51.3 °F 46.6 °F 30.32 in ESE 1.2 mph 1.2 mph 84% 0.00 in WeatherDisplay:10.37 W/m2 CLR
22:07 51.2 °F 46.5 °F 30.32 in ESE 1.2 mph 1.2 mph 84% 0.00 in WeatherDisplay:10.37 W/m2 CLR
22:12 51.2 °F 46.8 °F 30.32 in ESE 1.2 mph 1.2 mph 85% 0.00 in WeatherDisplay:10.37 W/m2 CLR
22:17 51.0 °F 46.6 °F 30.32 in ESE 1.2 mph 1.2 mph 85% 0.00 in WeatherDisplay:10.37 W/m2 CLR
22:22 50.9 °F 46.9 °F 30.33 in ESE 1.2 mph 1.2 mph 86% 0.00 in WeatherDisplay:10.37 W/m2 CLR
22:27 50.7 °F 46.4 °F 30.33 in ESE 1.2 mph 1.2 mph 85% 0.00 in WeatherDisplay:10.37 W/m2 CLR
22:33 50.6 °F 46.6 °F 30.33 in ESE 1.2 mph 1.2 mph 86% 0.00 in WeatherDisplay:10.37 W/m2 CLR
22:38 50.4 °F 46.4 °F 30.33 in ESE 1.2 mph 1.2 mph 86% 0.00 in WeatherDisplay:10.37 W/m2 CLR
22:43 50.4 °F 46.1 °F 30.33 in ESE 1.2 mph 1.2 mph 85% 0.00 in WeatherDisplay:10.37 W/m2 CLR
22:48 50.5 °F 45.8 °F 30.34 in ESE 1.2 mph 1.2 mph 84% 0.00 in WeatherDisplay:10.37 W/m2 CLR
22:53 50.7 °F 46.4 °F 30.33 in ESE 1.2 mph 1.2 mph 85% 0.00 in WeatherDisplay:10.37 W/m2 CLR
22:58 50.6 °F 46.3 °F 30.34 in ESE 1.2 mph 1.2 mph 85% 0.00 in WeatherDisplay:10.37 W/m2 CLR
23:03 50.4 °F 46.4 °F 30.34 in ESE 1.2 mph 1.2 mph 86% 0.00 in WeatherDisplay:10.37 W/m2 CLR
23:08 50.3 °F 46.3 °F 30.33 in ESE 1.2 mph 1.2 mph 86% 0.00 in WeatherDisplay:10.37 W/m2 CLR
23:13 50.0 °F 46.0 °F 30.33 in ESE 1.2 mph 1.2 mph 86% 0.00 in WeatherDisplay:10.37 W/m2 CLR
23:21 49.8 °F 46.1 °F 30.33 in ESE 1.2 mph   87% 0.00 in WeatherDisplay:10.37 W/m2 CLR
23:23 49.7 °F 46.0 °F 30.33 in ESE 1.2 mph 1.2 mph 87% 0.00 in WeatherDisplay:10.37 W/m2 CLR
23:24 49.7 °F 46.0 °F 30.33 in ESE 1.2 mph 1.2 mph 87% 0.00 in WeatherDisplay:10.37 W/m2 CLR
23:26 49.6 °F 45.9 °F 30.33 in ESE 1.2 mph 1.2 mph 87% 0.00 in WeatherDisplay:10.37 W/m2 CLR
23:31 49.5 °F 45.8 °F 30.33 in ESE 1.2 mph 1.2 mph 87% 0.00 in WeatherDisplay:10.37 W/m2 CLR
23:32 49.5 °F 45.8 °F 30.33 in ESE 1.2 mph 1.2 mph 87% 0.00 in WeatherDisplay:10.37 W/m2 CLR
23:37 49.6 °F 45.9 °F 30.33 in ESE 1.2 mph 1.2 mph 87% 0.00 in WeatherDisplay:10.37 W/m2 CLR
23:40 49.7 °F 46.0 °F 30.33 in ESE 1.2 mph 1.2 mph 87% 0.00 in WeatherDisplay:10.37 W/m2 CLR
23:45 49.5 °F 45.8 °F 30.33 in ESE 1.2 mph 1.2 mph 87% 0.00 in WeatherDisplay:10.37 W/m2 CLR
23:50 49.4 °F 45.7 °F 30.33 in ESE 1.2 mph 1.2 mph 87% 0.00 in WeatherDisplay:10.37 W/m2 CLR
23:55 49.2 °F 45.5 °F 30.33 in ESE 1.2 mph 1.2 mph 87% 0.00 in WeatherDisplay:10.37 W/m2 CLR
Piedmont Bend
Compliments of Weather Underground - 4 mb